When you browse on this site, cookies collect data to enhance your experience and personalize the content and advertising you see.
Visit our Privacy Policy to learn more. By continuing to use the site, you agree to this use of cookies and data.

Stündliche Wetter Valencia

Heute, 12 Juli, Sonntag

Zeit Temperatur Niederschläge Wind Luftdruck Luftfeuchtigkeit
00:00 +23°C° 0 mm 1 m/S 718 mmHg 96%
01:00 +23°C° 0 mm 1 m/S 717 mmHg 96%
02:00 +23°C° 0.1 mm 1 m/S 717 mmHg 96%
03:00 +21°C° 0.1 mm 0 m/S 717 mmHg 96%
04:00 +21°C° 0.1 mm 0 m/S 717 mmHg 96%
05:00 +22°C° 0.1 mm 0 m/S 718 mmHg 94%
06:00 +23°C° 0.1 mm 0 m/S 718 mmHg 93%
07:00 +23°C° 0.1 mm 0 m/S 719 mmHg 91%
08:00 +24°C° 0.6 mm 0 m/S 719 mmHg 88%
09:00 +27°C° 0.6 mm 1 m/S 719 mmHg 86%
10:00 +28°C° 0.6 mm 1 m/S 719 mmHg 84%
11:00 +27°C° 2.1 mm 2 m/S 719 mmHg 85%
12:00 +27°C° 2.1 mm 2 m/S 719 mmHg 86%
13:00 +27°C° 2.1 mm 3 m/S 718 mmHg 88%
14:00 +27°C° 1.3 mm 2 m/S 718 mmHg 88%
15:00 +27°C° 1.3 mm 2 m/S 717 mmHg 88%
16:00 +27°C° 1.3 mm 1 m/S 716 mmHg 88%
17:00 +26°C° 0.4 mm 1 m/S 717 mmHg 90%
18:00 +25°C° 0.4 mm 1 m/S 717 mmHg 92%
19:00 +22°C° 0.4 mm 0 m/S 717 mmHg 94%
20:00 +21°C° 0 mm 0 m/S 718 mmHg 94%
21:00 +21°C° 0 mm 0 m/S 718 mmHg 93%
22:00 +23°C° 0 mm 1 m/S 719 mmHg 92%
23:00 +21°C° 0 mm 0 m/S 718 mmHg 93%

Morgen, 13 Juli, Montag

Zeit Temperatur Niederschläge Wind Luftdruck Luftfeuchtigkeit
00:00 +21°C° 0 mm 0 m/S 718 mmHg 94%
01:00 +21°C° 0 mm 0 m/S 718 mmHg 94%
02:00 +20°C° 0 mm 0 m/S 718 mmHg 94%
03:00 +20°C° 0 mm 0 m/S 718 mmHg 94%
04:00 +20°C° 0 mm 0 m/S 718 mmHg 94%
05:00 +21°C° 0 mm 0 m/S 718 mmHg 92%
06:00 +22°C° 0 mm 0 m/S 719 mmHg 90%
07:00 +23°C° 0 mm 0 m/S 719 mmHg 88%
08:00 +27°C° 0 mm 1 m/S 719 mmHg 80%
09:00 +28°C° 0 mm 1 m/S 720 mmHg 72%
10:00 +30°C° 0 mm 2 m/S 720 mmHg 63%
11:00 +30°C° 0.3 mm 2 m/S 719 mmHg 65%
12:00 +30°C° 0.3 mm 3 m/S 719 mmHg 68%
13:00 +30°C° 0.3 mm 3 m/S 718 mmHg 70%
14:00 +29°C° 0.5 mm 3 m/S 718 mmHg 73%
15:00 +29°C° 0.5 mm 2 m/S 718 mmHg 76%
16:00 +28°C° 0.5 mm 2 m/S 717 mmHg 79%
17:00 +27°C° 0.1 mm 2 m/S 718 mmHg 84%
18:00 +26°C° 0.1 mm 1 m/S 718 mmHg 88%
19:00 +24°C° 0.1 mm 1 m/S 718 mmHg 93%
20:00 +24°C° 0 mm 1 m/S 719 mmHg 93%
21:00 +22°C° 0 mm 0 m/S 719 mmHg 94%
22:00 +21°C° 0 mm 0 m/S 719 mmHg 94%
23:00 +21°C° 0 mm 0 m/S 719 mmHg 94%

übermorgen, 14 Juli, Dienstag

Zeit Temperatur Niederschläge Wind Luftdruck Luftfeuchtigkeit
00:00 +21°C° 0 mm 0 m/S 718 mmHg 94%
01:00 +21°C° 0 mm 0 m/S 718 mmHg 94%
02:00 +21°C° 0 mm 0 m/S 718 mmHg 94%
03:00 +21°C° 0 mm 0 m/S 718 mmHg 94%
04:00 +23°C° 0 mm 1 m/S 718 mmHg 94%
05:00 +22°C° 0 mm 0 m/S 718 mmHg 92%
06:00 +22°C° 0 mm 0 m/S 719 mmHg 90%
07:00 +23°C° 0 mm 0 m/S 719 mmHg 88%
08:00 +27°C° 0 mm 1 m/S 720 mmHg 80%
09:00 +29°C° 0 mm 1 m/S 720 mmHg 71%
10:00 +30°C° 0 mm 1 m/S 720 mmHg 63%
11:00 +30°C° 0 mm 1 m/S 719 mmHg 63%
12:00 +31°C° 0 mm 1 m/S 719 mmHg 63%
13:00 +31°C° 0 mm 2 m/S 718 mmHg 63%
14:00 +30°C° 0.1 mm 1 m/S 718 mmHg 65%
15:00 +30°C° 0.1 mm 1 m/S 717 mmHg 66%
16:00 +30°C° 0.1 mm 1 m/S 717 mmHg 68%
17:00 +28°C° 0 mm 1 m/S 717 mmHg 77%
18:00 +27°C° 0 mm 1 m/S 717 mmHg 86%
19:00 +25°C° 0 mm 1 m/S 718 mmHg 95%
20:00 +25°C° 0 mm 1 m/S 718 mmHg 95%
21:00 +24°C° 0 mm 1 m/S 718 mmHg 96%
22:00 +24°C° 0 mm 1 m/S 719 mmHg 96%
23:00 +24°C° 0 mm 1 m/S 718 mmHg 96%

15 Juli, Mittwoch

Zeit Temperatur Niederschläge Wind Luftdruck Luftfeuchtigkeit
00:00 +22°C° 0 mm 0 m/S 718 mmHg 97%
01:00 +22°C° 0 mm 0 m/S 718 mmHg 97%
02:00 +22°C° 0 mm 0 m/S 717 mmHg 97%
03:00 +22°C° 0 mm 0 m/S 717 mmHg 97%
04:00 +21°C° 0 mm 0 m/S 717 mmHg 96%
05:00 +22°C° 0 mm 0 m/S 718 mmHg 94%
06:00 +23°C° 0 mm 0 m/S 718 mmHg 92%
07:00 +24°C° 0 mm 0 m/S 719 mmHg 90%
08:00 +25°C° 0.1 mm 0 m/S 719 mmHg 82%
09:00 +29°C° 0.1 mm 1 m/S 719 mmHg 74%
10:00 +31°C° 0.1 mm 1 m/S 719 mmHg 66%
11:00 +30°C° 0.5 mm 1 m/S 719 mmHg 68%
12:00 +30°C° 0.5 mm 1 m/S 718 mmHg 69%
13:00 +30°C° 0.5 mm 1 m/S 717 mmHg 70%
14:00 +30°C° 0.4 mm 1 m/S 717 mmHg 71%
15:00 +29°C° 0.4 mm 1 m/S 716 mmHg 72%
16:00 +29°C° 0.4 mm 1 m/S 716 mmHg 73%
17:00 +28°C° 0.3 mm 1 m/S 716 mmHg 80%
18:00 +26°C° 0.3 mm 1 m/S 717 mmHg 87%
19:00 +24°C° 0.3 mm 1 m/S 717 mmHg 94%
20:00 +24°C° 0.2 mm 1 m/S 717 mmHg 94%
21:00 +22°C° 0.2 mm 0 m/S 718 mmHg 94%
22:00 +21°C° 0.2 mm 0 m/S 718 mmHg 94%
23:00 +21°C° 0.3 mm 0 m/S 718 mmHg 94%

16 Juli, Donnerstag

Zeit Temperatur Niederschläge Wind Luftdruck Luftfeuchtigkeit
00:00 +21°C° 0.3 mm 0 m/S 717 mmHg 94%
01:00 +21°C° 0.3 mm 0 m/S 717 mmHg 94%
02:00 +21°C° 0 mm 0 m/S 717 mmHg 94%
03:00 +20°C° 0 mm 0 m/S 717 mmHg 94%
04:00 +20°C° 0 mm 0 m/S 717 mmHg 94%
05:00 +21°C° 0 mm 0 m/S 717 mmHg 92%
06:00 +22°C° 0 mm 0 m/S 718 mmHg 91%
07:00 +23°C° 0 mm 0 m/S 718 mmHg 89%
08:00 +27°C° 0 mm 1 m/S 718 mmHg 80%
09:00 +28°C° 0 mm 1 m/S 719 mmHg 72%
10:00 +30°C° 0 mm 2 m/S 719 mmHg 63%
11:00 +30°C° 0.4 mm 2 m/S 718 mmHg 64%
12:00 +30°C° 0.4 mm 2 m/S 718 mmHg 66%
13:00 +30°C° 0.4 mm 2 m/S 717 mmHg 68%
14:00 +30°C° 0.7 mm 2 m/S 717 mmHg 71%
15:00 +29°C° 0.7 mm 2 m/S 716 mmHg 74%
16:00 +29°C° 0.7 mm 1 m/S 716 mmHg 77%
17:00 +27°C° 0.7 mm 1 m/S 716 mmHg 81%
18:00 +26°C° 0.7 mm 1 m/S 717 mmHg 86%
19:00 +25°C° 0.7 mm 1 m/S 717 mmHg 90%
20:00 +24°C° 0.1 mm 1 m/S 717 mmHg 90%
21:00 +24°C° 0.1 mm 1 m/S 718 mmHg 90%
22:00 +24°C° 0.1 mm 1 m/S 718 mmHg 90%
23:00 +24°C° 0 mm 1 m/S 718 mmHg 90%

17 Juli, Freitag

Zeit Temperatur Niederschläge Wind Luftdruck Luftfeuchtigkeit
00:00 +23°C° 0 mm 1 m/S 717 mmHg 90%
01:00 +23°C° 0 mm 1 m/S 717 mmHg 91%
02:00 +23°C° 0 mm 1 m/S 717 mmHg 90%
03:00 +23°C° 0 mm 1 m/S 717 mmHg 90%
04:00 +23°C° 0 mm 1 m/S 717 mmHg 90%
05:00 +23°C° 0 mm 1 m/S 718 mmHg 89%
06:00 +24°C° 0 mm 1 m/S 718 mmHg 89%
07:00 +25°C° 0 mm 1 m/S 718 mmHg 88%
08:00 +26°C° 0.2 mm 1 m/S 718 mmHg 83%
09:00 +27°C° 0.2 mm 1 m/S 719 mmHg 78%
10:00 +29°C° 0.2 mm 2 m/S 719 mmHg 73%
11:00 +29°C° 1.5 mm 2 m/S 718 mmHg 76%
12:00 +29°C° 1.5 mm 2 m/S 717 mmHg 79%
13:00 +29°C° 1.5 mm 2 m/S 717 mmHg 82%
14:00 +28°C° 2.2 mm 2 m/S 717 mmHg 84%
15:00 +28°C° 2.2 mm 2 m/S 716 mmHg 85%
16:00 +28°C° 2.2 mm 1 m/S 716 mmHg 87%
17:00 +26°C° 1 mm 1 m/S 716 mmHg 89%
18:00 +25°C° 1 mm 1 m/S 716 mmHg 90%
19:00 +24°C° 1 mm 1 m/S 717 mmHg 92%
20:00 +24°C° 0.8 mm 1 m/S 717 mmHg 92%
21:00 +24°C° 0.8 mm 1 m/S 717 mmHg 92%
22:00 +24°C° 0.8 mm 1 m/S 718 mmHg 92%
23:00 +24°C° 1.1 mm 1 m/S 717 mmHg 92%
Mehr zeigen